This demonstration page uses our WeatherBlox Daily Observations layout. Learn more.

Left ArrowRight Arrow

39.92423, -83.80882

Hourly Observations for January 22, 2015

Temp ( °F °C ) Dew Point ( °F °C ) Humidity (%) Winds ( mph kmh ) Pressure ( in mb ) Visibility ( mi km ) Precip ( " mm )
12:26 am 00:26 Cloudy 34 1 32 0 93 93 WNW 12 19 30.24 1024 7 11 0.00 0.00
12:56 am 00:56 Cloudy 34 1.1 32 0 92 92 WNW 13 20 30.22 1023 7 11 0.00 0.00
1:56 am 01:56 Cloudy with Mist and Fog 33 0.5 32 0 96 96 W 10 17 30.23 1024 6 10 0.00 0.00
2:56 am 02:56 Cloudy with Mist and Fog 33 0.5 31 -0.5 93 93 WNW 13 20 30.25 1024 5 8 0.00 0.00
3:37 am 03:37 Cloudy with Mist and Fog 32 0 30 -1 93 93 WNW 12 19 30.30 1026 5 8 0.00 0.00
3:46 am 03:46 Cloudy with Mist and Fog 32 0 30 -1 93 93 W 9 15 30.30 1026 5 8 0.00 0.00
3:56 am 03:56 Cloudy with Mist and Fog 32 0 29 -1.6 89 89 W 9 15 30.26 1025 5 8 0.00 0.00
4:29 am 04:29 Cloudy with Mist and Fog 32 0 28 -2 87 87 NW 13 20 30.30 1026 6 10 0.00 0.00
4:49 am 04:49 Cloudy 32 0 28 -2 87 87 WNW 9 15 30.30 1026 7 11 0.00 0.00
4:56 am 04:56 Cloudy 32 0 28 -2.2 85 85 VRB 7 11 30.28 1025 7 11 0.00 0.00
5:56 am 05:56 Cloudy 31 -0.5 27 -2.7 85 85 SSW 6 9 30.32 1027 8 13 0.00 0.00
6:56 am 06:56 Cloudy 31 -0.5 26 -3.3 82 82 SSW 6 9 30.35 1028 8 13 0.00 0.00
7:56 am 07:56 Cloudy 31 -0.5 27 -2.7 85 85 SSW 6 9 30.38 1029 8 13 0.00 0.00
8:56 am 08:56 Cloudy with Haze 31 -0.5 26 -3.3 82 82 WSW 8 13 30.40 1029 6 10 0.00 0.00
9:56 am 09:56 Cloudy 31 -0.5 25 -3.8 79 79 W 9 15 30.42 1030 7 11 0.00 0.00
10:56 am 10:56 Cloudy 32 0 25 -3.8 76 76 WNW 8 13 30.43 1031 7 11 0.00 0.00
11:56 am 11:56 Cloudy 32 0 26 -3.3 79 79 W 8 13 30.43 1030 7 11 0.00 0.00
12:56 pm 12:56 Cloudy 31 -0.5 25 -3.8 79 79 VRB 6 9 30.43 1031 7 11 0.00 0.00
1:56 pm 13:56 Cloudy with Haze 31 -0.5 25 -3.8 79 79 SSW 7 11 30.44 1031 6 10 0.00 0.00
2:56 pm 14:56 Cloudy with Haze 31 -0.5 25 -3.8 79 79 S 5 7 30.44 1031 6 10 0.00 0.00
3:56 pm 15:56 Cloudy 31 -0.5 25 -3.8 79 79 SSW 6 9 30.44 1031 7 11 0.00 0.00
4:56 pm 16:56 Cloudy 31 -0.5 25 -3.8 79 79 SSW 6 9 30.46 1031 7 11 0.00 0.00
5:56 pm 17:56 Cloudy 31 -0.5 25 -3.8 79 79 VRB 6 9 30.46 1031 8 13 0.00 0.00
6:56 pm 18:56 Cloudy 31 -0.5 25 -3.8 79 79 SSE 5 7 30.46 1032 8 13 0.00 0.00
7:56 pm 19:56 Cloudy 31 -0.5 25 -3.8 79 79 Calm 30.47 1032 8 13 0.00 0.00
8:56 pm 20:56 Cloudy 31 -0.5 25 -3.8 79 79 Calm 30.45 1031 8 13 0.00 0.00
9:56 pm 21:56 Cloudy 31 -0.5 25 -3.8 79 79 Calm 30.44 1031 8 13 0.00 0.00
10:56 pm 22:56 Cloudy 31 -0.5 25 -3.8 79 79 Calm 30.45 1031 8 13 0.00 0.00
11:56 pm 23:56 Cloudy 30 -1.1 25 -3.8 82 82 Calm 30.44 1031 8 13 0.00 0.00

Powered by AerisWeather